Meteo Giornale » Osservazioni meteo Russia » Murmansk
ore: 20:00 - Osservazioni Meteo Murmansk
Lat. 68° 58' N Lon. 33° 3' E Alt. 51 metri s.l.m.
15 °C
Nuvoloso
Temp. 24 Ore
12 °C
17 °C
Sud/Sud-Est
10.8 Km/h
Dew point 12 °C
Umidità 82 %
Visibilità 10 Km
Il sole sorge alle ore 05:05
Il sole tramonta alle ore 20:30
| Data e Ora | Cielo e Fenomeni | T °C | DP °C | Um. % | Pres. hPa | Vis. km | Vento km/h | |
|---|---|---|---|---|---|---|---|---|
| Oggi h: 20:00 | Nuvoloso | 15 | 12 | 82 | 1006 | 10 | S/SE 10.8 | |
| Oggi h: 19:30 | Nuvoloso | 15 | 13 | 87 | 1006 | 10 | S 10.8 | |
| Oggi h: 19:00 | Nuvoloso | 15 | 13 | 87 | 1006 | 10 | S 14.4 | |
| Oggi h: 18:30 | Nuvoloso | 16 | 13 | 82 | 1006 | 10 | S 10.8 | |
| Oggi h: 18:00 | Pioggia | 15 | 13 | 87 | 1006 | 10 | S/SE 10.8 | |
| Oggi h: 17:30 | Pioggia | 16 | 13 | 82 | 1006 | 9 | S/SE 14.4 | |
| Oggi h: 17:00 | Nuvoloso | 16 | 12 | 77 | 1006 | 10 | S 14.4 | |
| Oggi h: 16:30 | Nuvoloso | 17 | 12 | 72 | 1006 | 10 | S 14.4 | |
| Oggi h: 16:00 | Nuvoloso | 17 | 12 | 72 | 1006 | 10 | S 14.4 | |
| Oggi h: 15:30 | Nuvoloso | 17 | 12 | 72 | 1006 | 10 | S 14.4 | |
| Oggi h: 15:00 | Nuvoloso | 17 | 12 | 72 | 1006 | 10 | S 14.4 | |
| Oggi h: 14:30 | Nuvoloso | 17 | 13 | 77 | 1007 | 10 | S 14.4 | |
| Oggi h: 14:00 | Nuvoloso | 17 | 13 | 77 | 1007 | 10 | S 14.4 | |
| Oggi h: 13:30 | Nuvoloso | 16 | 13 | 82 | 1007 | 10 | N 7.2 | |
| Oggi h: 13:00 | Nuvoloso | 15 | 13 | 87 | 1007 | 10 | N 7.2 | |
| Oggi h: 12:30 | Nuvoloso | 15 | 13 | 87 | 1006 | 10 | S 10.8 | |
| Oggi h: 12:00 | Nuvoloso | 15 | 13 | 87 | 1006 | 10 | S 10.8 | |
| Oggi h: 11:30 | Nuvoloso | 15 | 13 | 87 | 1006 | 10 | S 14.4 | |
| Oggi h: 11:00 | Nuvoloso | 15 | 13 | 87 | 1007 | 10 | S/SE 10.8 | |
| Oggi h: 10:30 | Nuvoloso | 15 | 14 | 93 | 1007 | 10 | N 7.2 | |
| Oggi h: 10:00 | Nuvoloso | 15 | 14 | 93 | 1006 | 10 | S/SE 14.4 | |
| Oggi h: 09:30 | Nuvoloso | 15 | 14 | 93 | 1007 | 10 | S/SE 10.8 | |
| Oggi h: 09:00 | Nuvoloso | 14 | 13 | 93 | 1007 | 10 | S 10.8 | |
| Oggi h: 08:30 | Nuvoloso | 14 | 14 | 100 | 1007 | 10 | N 7.2 | |
| Oggi h: 08:00 | Nuvoloso | 14 | 13 | 93 | 1007 | 9 | N 3.6 | |
| Oggi h: 07:30 | Nuvoloso | 13 | 13 | 100 | 1007 | 9 | N 7.2 | |
| Oggi h: 07:00 | Nuvoloso | 13 | 13 | 100 | 1007 | 10 | N 3.6 | |
| Oggi h: 06:30 | Molto Nuvoloso | 13 | 12 | 93 | 1007 | 10 | N 3.6 | |
| Oggi h: 06:00 | Pioggia | 12 | 12 | 100 | 1007 | 10 | SE 10.8 | |
| Oggi h: 05:30 | Pioggia | 12 | 12 | 100 | 1007 | 10 | SE 14.4 | |
| Oggi h: 05:00 | Pioggia | 12 | 12 | 100 | 1007 | 8 | S/SE 14.4 | |
| Oggi h: 04:30 | Pioggia | 12 | 12 | 100 | 1007 | 9 | S/SE 10.8 | |
| Oggi h: 04:00 | Pioggia | 12 | 12 | 100 | 1007 | 10 | N 7.2 | |
| Oggi h: 03:30 | Pioggia | 12 | 12 | 100 | 1007 | 10 | SE 10.8 | |
| Oggi h: 03:00 | Pioggia | 12 | 12 | 100 | 1007 | 10 | S/SE 10.8 | |
| Oggi h: 02:30 | Pioggia | 12 | 12 | 100 | 1007 | 10 | S/SE 14.4 | |
| Oggi h: 02:00 | Pioggia | 12 | 11 | 93 | 1007 | 8 | S/SE 18 | |
| Oggi h: 01:30 | Pioggia | 12 | 11 | 93 | 1007 | 10 | SE 18 | |
| Oggi h: 01:00 | Pioggia | 13 | 10 | 81 | 1007 | 10 | SE 18 | |
| Oggi h: 00:30 | Pioggia | 13 | 10 | 81 | 1008 | 10 | S/SE 14.4 | |
| Oggi h: 00:00 | Pioggia | 13 | 9 | 76 | 1008 | 10 | S/SE 14.4 | |
| Ieri h: 23:30 | Pioggia | 13 | 9 | 76 | 1008 | 10 | S/SE 14.4 | |
| Ieri h: 23:00 | Pioggia | 13 | 9 | 76 | 1008 | 10 | S/SE 14.4 | |
| Ieri h: 22:30 | Nuvoloso | 14 | 8 | 67 | 1009 | 10 | S/SE 18 | |
| Ieri h: 22:00 | Nuvoloso | 14 | 8 | 67 | 1009 | 10 | S/SE 14.4 | |
| Ieri h: 21:30 | Nuvoloso | 13 | 7 | 66 | 1009 | 10 | SE 18 | |
| Ieri h: 21:00 | Nuvoloso | 14 | 7 | 62 | 1009 | 10 | SE 18 | |



